This is the latest recevied weather packets stored in our database for station/object K5MGY. If no packets are shown the sender has not sent any weather packets the latest 10 day(s).
| Time | Temp. | Humidity | Pressure | Rain* | Wind** | Luminosity | Snow |
|---|---|---|---|---|---|---|---|
| 1788539314 | 34.44° C | 51% | 1039.1 hPa | 0 mm | - | 578 W/m² | - |
| 1788539010 | 34.44° C | 50% | 1038.9 hPa | 0 mm | - | 552 W/m² | - |
| 1788538705 | 34.44° C | 50% | 1038.9 hPa | 0 mm | - | 549 W/m² | - |
| 1788538405 | 34.44° C | 52% | 1038.9 hPa | 0 mm | - | 539 W/m² | - |
| 1788538100 | 33.89° C | 53% | 1039 hPa | 0 mm | - | 523 W/m² | - |
| 1788537800 | 33.89° C | 53% | 1038.9 hPa | 0 mm | - | 500 W/m² | - |
| 1788537495 | 33.33° C | 55% | 1039 hPa | 0 mm | - | 505 W/m² | - |
| 1788537190 | 32.78° C | 62% | 1038.8 hPa | 0 mm | - | 488 W/m² | - |
| 1788536889 | 31.67° C | 64% | 1039 hPa | 0 mm | - | 470 W/m² | - |
| 1788536584 | 31.67° C | 66% | 1038.9 hPa | 0 mm | - | 448 W/m² | - |
| 1788536279 | 31.67° C | 66% | 1038.8 hPa | 0 mm | - | 440 W/m² | - |
| 1788535974 | 31.11° C | 66% | 1038.9 hPa | 0 mm | - | 430 W/m² | - |
| 1788535671 | 31.11° C | 68% | 1038.8 hPa | 0 mm | - | 407 W/m² | - |
| 1788535365 | 30.56° C | 69% | 1038.9 hPa | 0 mm | - | 382 W/m² | - |
| 1788535060 | 30.56° C | 69% | 1038.7 hPa | 0 mm | - | 387 W/m² | - |
| 1788534759 | 30° C | 71% | 1038.7 hPa | 0 mm | - | 346 W/m² | - |
| 1788534456 | 29.44° C | 73% | 1038.9 hPa | 0 mm | - | 371 W/m² | - |
| 1788534150 | 29.44° C | 73% | 1039 hPa | 0 mm | - | 130 W/m² | - |
| 1788533849 | 28.89° C | 75% | 1038.9 hPa | 0 mm | - | 326 W/m² | - |
| 1788533545 | 28.89° C | 75% | 1038.8 hPa | 0 mm | - | 107 W/m² | - |
| 1788533240 | 28.89° C | 75% | 1038.8 hPa | 0 mm | - | 100 W/m² | - |
| 1788532935 | 29.44° C | 75% | 1039 hPa | 0 mm | - | 139 W/m² | - |
| 1788532631 | 29.44° C | 74% | 1038.9 hPa | 0 mm | - | 89 W/m² | - |
| 1788532328 | 29.44° C | 74% | 1038.9 hPa | 0 mm | - | 259 W/m² | - |
| 1788532024 | 29.44° C | 75% | 1038.9 hPa | 0 mm | - | 151 W/m² | - |
* Rain latest hour (hover to see other rain measurements)
** Current wind speed in m/s (hover to see current wind gust speed)